SPACEBEENZ-3 (46938 NORAD) Tracking and Keplerian Element Data
This shows tracking and keplerian element data for the satellite.
Feedback or suggestion? Click here.
Element | Value |
Catalog | 46938 |
Name | SPACEBEENZ-3 |
Epoch Orbit | 848 |
Epoch Day | 14.90814035 |
Epoch Year | 2021 |
RAAN | 154.3834 |
Inclination | 97.3736 |
Eccentricity | 0.0017676 |
Argument of Perigee | 103.3315 |
Mean Anonmoly | 256.9888 |
Mean Motion | 15.21381195 |
Decay Rate | 2.754E-05 |
L1 | 1 46938U 20085K 21014.90814035 .00002754 00000-0 12541-3 0 9997 |
L2 | 2 46938 97.3736 154.3834 0017676 103.3315 256.9888 15.21381195 8480 |
Live tracking and technical data element details for SPACEBEENZ-3 (NORAD 46938). SPACEBEENZ-3 can be tracked NOW for your location showing map with azimuth and elevation plus other details from your city location.
Track the satellite on the map from your city or location and see movement details for azimuth, elevation, latitude, longitude, range, height, and movement on the map or in text.
IsCatalogInMostPopularTable: catalog: 46938, numindb: 22
Update: records affected: 1
GetName: 46938 SPACEBEENZ-3
Hit Count: updated at: Fri, 15 Jan 2021 23:03:01 GMT